ONEWEB-0310, 49096

Orbit data source: Space-Track

ONEWEB-0310, 49096 is a payload satellite owned by One Web (NAA) (UK) in LEO that was launched on Sat, 21 Aug 2021 UTC via a SOYUZ-2-1B launch vehicle from the Tyuratam Missile And Space Complex (TTMTR). Payload-class satellites include a variety of spacecraft equipped with specific instruments for various scientific and technological missions. These include communications satellites like Starlink; space stations such as the ISS; scientific satellites like the Hubble; Earth observation satellites from companies like Planet Labs, Umbra, and HawkEye 360; GPS; miniature CubeSats for education and research; and military/defense satellites.

Loading next visibility...
Identifier
49096, 2021-075X
Orbit
LEO
Country
Flag of UKUK
Related business
Manufacturer
One Web
Mission
Operational Commercial Communications
Bus & Motor
ARROW, Unknown motor
Mass
148 kg wet, ~140 kg dry
Launch date (UTC)
2021-08-21 (5 years ago)
Launch vehicle
SOYUZ-2-1B
Launch site
Tyuratam Missile And Space Complex (TTMTR)
Object type
Payload
Rocket body
Debris
Shape & HBR
Trap Box + 2 Pan, 6.7 m
Radar Cross Section
3.464 m², Medium (>0.1 m² and < 1m²)

Expand to show TLE details & history
Last TLE update: 7 hours ago

TLE from 7 hours ago
0 ONEWEB-0310
1 49096U 21075X   26130.19324738 -.00000636  00000-0 -18034-2 0  9997
2 49096  87.8970 358.2364 0001771  82.5797 277.5532 13.12442183230201
Epoch: 2026-05-10T04:38Z
TLE epoch observation values (Epoch: 2026-05-10T04:38:16.573Z)
Latitude
-0.0001°
Longitude
60.6675°
Altitude
1,216.441 km
Speed
7.246 km/s
True Right ascension
23h 52m 56s
True Declination
0° 00' 00"
Sunlit
Object was in daylight at epoch
Visualization orbit readout
Latitude
Unknown
Longitude
Unknown
Altitude
Unknown
Speed
Unknown
Apparent Right ascension
Unknown
Apparent Declination
Unknown
Sunlit
N/A
Visualization observer readout
Local Sidereal Time
19:49:00
Azimuth
Unknown
Elevation
Unknown
Doppler factor
Unknown
Orbital elements
Apogee altitude
1,212.187 km
Perigee altitude
1,209.499 km
Semi-major axis
7,588.98 km
Eccentricity
0.00018
Inclination
87.897°
RAAN
358.2364°
Arg. of periapsis
82.5797°
True anomaly
277.53308°
Mean anomaly
277.5532°
Eccentric anomaly
277.54314°
Mean motion
3.28298 °/min
Orbital period
109.66 mins
BSTAR
-0.0018034
Loading maneuver chart data...
Computing Atmospheric mass density...
Loading historical data...
Loading historical data...
Loading historical data...
Loading historical data...
Loading historical data...
Loading historical data...
Loading historical data...

Documentation

Showing up to 5 results
|